Location: Cheyres
(46.8153°N, 6.7877°E)
Time: 11:39:48
(UTC+00:00)

Gbstr 26 Del rocket - Pass Details

Date: 26 September 2021
Orbit: 492 x 1263 km, 51.8° (Epoch: 18 October)

Event Time Altitude Azimuth Distance (km) Brightness Sun altitude
Exits shadow 01:08:18 21° 105° (ESE) 2,333 6.1 -39.1°
Drops below altitude 10° 01:10:19 10° 107° (ESE) 2,986 6.7 -38.9°
Sets 01:12:53 0° 109° (ESE) 3,850 7.3 -38.7°
